Regional Weather Roundup
Issued by NWS

Home | Current Version | Previous Version | Graphics & Text | Print | Product List | Glossary On
Versions: 1 2 3 4 5 6 7 8 9 10 11 12 13 14 15 16 17 18 19 20 21 22 23 24 25 26 27 28 29 30 31 32 33 34 35 36 37 38 39 40 41 42 43 44 45 46 47 48 49 50
000
ASUS43 KLOT 210110
RWRIL

ILLINOIS REGIONAL WEATHER ROUNDUP
NATIONAL WEATHER SERVICE CHICAGO/ROMEOVILLE IL
800 PM CDT SUN APR 20 2014

NOTE: "FAIR" INDICATES FEW OR NO CLOUDS BELOW 12,000 FEET WITH NO
SIGNIFICANT WEATHER AND/OR OBSTRUCTIONS TO VISIBILITY.

* THESE STATIONS ARE NOT UNDER NWS QUALITY CONTROL. THEY ALSO MAY NOT
  REPORT WEATHER SUCH AS PRECIPITATION OR FOG.

ILZ001-002-007-009-015-016-024-210200-
NORTHWEST ILLINOIS

CITY           SKY/WX    TMP DP  RH WIND       PRES   REMARKS
MOLINE         MOCLDY    73  46  38 S7        29.98F
STERLING*      PTCLDY    72  43  35 S5        30.00S
SAVANNA*       MOCLDY    72  43  36 S3        29.98F
$$

ILZ003-004-008-010-011-017-018-210200-
NORTH CENTRAL ILLINOIS

CITY           SKY/WX    TMP DP  RH WIND       PRES   REMARKS
ROCKFORD       CLOUDY    70  42  36 S10       30.02F
FREEPORT*      MOCLDY    68  47  46 S5        30.03S
ROCHELLE*      MOCLDY    66  43  42 SE9       30.03S
DE KALB*       MOCLDY    64  43  45 S7        30.04F
PERU*          PTCLDY    73  41  31 CALM      30.03S
$$

ILZ005-006-012>014-019>023-210200-
NORTHEAST ILLINOIS

CITY           SKY/WX    TMP DP  RH WIND       PRES   REMARKS
CHICAGO-OHARE  MOCLDY    68  39  34 S8        30.04F
CHICAGO-MIDWAY PTCLDY    74  39  28 S7        30.05F
AURORA         MOCLDY    67  42  40 S6        30.04F
LANSING*       CLEAR     69  37  30 SE5       30.06F
JOLIET*        PTCLDY    65  41  40 SE3       30.06S
WAUKEGAN       PTCLDY    60  38  43 SE10      30.03F
DUPAGE AIRPORT PTCLDY    66  41  40 SE6       30.03F
KANKAKEE*      PTCLDY    68  42  37 S6        30.07S
WHEELING       PTCLDY    67  41  38 S7        30.05S
MORRIS*        PTCLDY    71  31  22 S7        30.04S
ROMEOVILLE*    PTCLDY    69  38  31 SE7       30.05S
NORTHERLY ISL    N/A     53  41  63 SE1         N/A
$$

LMZ740>746-210200-
SOUTHERN LAKE MICHIGAN

STATION/POSITION SKY/WX   TEMP    WIND        PRES    VSBY  WAVE
                          AIR SEA DIR/SP/G                  HT/PER
                          (F)     (DEG/KT/KT) (MB)    (MI)  (FT/S)
WAUKEGAN HARBOR            50     190/  9/ 11 1018.3F
HARRISON CRIB              54     140/  9/ 13   N/A
BURNHAM HARBOR             53      CALM  /  3   N/A
CALUMET HARBOR                     80/  3/  3 1018.5F
MICHIGAN CITY              65      60/  2/  3   N/A
$$

ILZ025>027-034>036-040-047-049-050-058-095>099-210200-
WEST-CENTRAL ILLINOIS

CITY           SKY/WX    TMP DP  RH WIND       PRES   REMARKS
QUINCY         PTCLDY    72  47  40 SW3       30.01F
GALESBURG*     MOCLDY    72  48  43 S6        30.01S
MACOMB*        MOCLDY    71  44  38 S6        30.03S
JACKSONVILLE*  PTCLDY    71  41  33 SE8       30.05S
PITTSFIELD*    PTCLDY    74  41  30 SE6       30.03F
$$

ILZ028>032-037-038-041>044-048-051>054-059>061-210200-
CENTRAL ILLINOIS

CITY           SKY/WX    TMP DP  RH WIND       PRES   REMARKS
PONTIAC        PTCLDY    70  43  37 S9        30.06R
BLOOMINGTON    PTCLDY    64  41  43 S10       30.08S
DECATUR        PTCLDY    68  42  38 SW5       30.08S
PEORIA         PTCLDY    72  41  32 S9        30.03S
LACON*         PTCLDY    67  45  44 S5        30.02S
LINCOLN*       PTCLDY    70  41  34 S7        30.05R
SPRINGFIELD    PTCLDY    70  42  36 S8        30.06S
TAYLORVILLE    PTCLDY    66  43  42 SE7       30.07S
$$

ILZ033-039-045-046-055>057-062-063-210200-
EAST-CENTRAL ILLINOIS

CITY           SKY/WX    TMP DP  RH WIND       PRES   REMARKS
CHAMPAIGN      CLEAR     63  39  41 S9        30.09S
RANTOUL*       CLEAR     68  40  36 CALM      30.10S
MATTOON        PTCLDY    68  43  40 S5        30.09S
PARIS*         PTCLDY    60  46  60 CALM      30.11S
$$

ILZ079-100>102-210200-
SOUTHWEST ILLINOIS

CITY           SKY/WX    TMP DP  RH WIND       PRES   REMARKS
ALTON          PTCLDY    66  43  42 SE9       30.05F
BELLEVILLE     PTCLDY    69  46  43 SE7       30.05F
CAHOKIA*       PTCLDY    72  46  39 SE8       30.04F
SPARTA*        PTCLDY    68  45  42 SE5       30.07F
$$

ILZ064>066-069>071-074>076-080>082-084>086-088>090-092>094-210200-
SOUTH-CENTRAL ILLINOIS

CITY           SKY/WX    TMP DP  RH WIND       PRES   REMARKS
CARBONDALE     PTCLDY    67  45  45 S7        30.08S
CAIRO*         PTCLDY    71  49  45 CALM      30.09S
MARION         CLEAR     68  45  42 S3        30.10S
MT. VERNON     PTCLDY    68  41  37 CALM      30.10S
CENTRALIA*       N/A     67  44  43 CALM      30.08F
SALEM*         PTCLDY    70  46  41 CALM      30.09F
METROPOLIS*    CLEAR     68  41  38 CALM      30.09S
$$

ILZ067-068-072-073-078-083-087-091-210200-
SOUTHEAST ILLINOIS

CITY           SKY/WX    TMP DP  RH WIND       PRES   REMARKS
FAIRFIELD*     PTCLDY    70  46  43 CALM      30.10R
HARRISBURG*    PTCLDY    68  49  50 CALM      30.11R
ROBINSON*      PTCLDY    64  51  63 SW3       30.11S
CARMI*         PTCLDY    66  53  63 E5        30.10R
$$

ABBREVIATIONS USED IN REMARKS
   TC - TEMPERATURE IN CELSIUS
  WCI - WIND CHILL INDEX
   HX - HEAT INDEX
  VSB - VISIBILITY
$$




USA.gov is the U.S. government's official web portal to all federal, state and local government web resources and services.